Regional Weather Roundup
Issued by NWS

Home | Current Version | Previous Version | Graphics & Text | Print | Product List | Glossary On
Versions: 1 2 3 4 5 6 7 8 9 10 11 12 13 14 15 16 17 18 19 20 21 22 23 24 25 26 27 28 29 30 31 32 33 34 35 36 37 38 39 40 41 42 43 44 45 46 47 48 49 50
192
ASUS43 KOAX 200010
RWRNE

WEATHER ROUNDUP FOR NEBRASKA
NATIONAL WEATHER SERVICE OMAHA NE
600 PM CST SUN NOV 19 2017

NOTES: SATELLITE DATA IS BEING USED TO AUGMENT CLOUD COVER ABOVE
       12000 FEET.
       "FAIR" INDICATES FEW OR NO CLOUDS BELOW 12,000 FEET WITH NO
       SIGNIFICANT WEATHER AND/OR OBSTRUCTIONS TO VISIBILITY.


NEZ001>004-019>022-054>056-200100-
NEBRASKA PANHANDLE

CITY           SKY/WX    TMP DP  RH WIND       PRES   REMARKS
SCOTTSBLUFF    CLOUDY    43  11  27 SW7       29.90F
6HR MIN TEMP:  41; 6HR MAX TEMP:  60;

ALLIANCE       CLOUDY    44   8  23 W14       29.86F
6HR MIN TEMP:  44; 6HR MAX TEMP:  58;

CHADRON        CLOUDY    46  19  34 CALM      29.83S
6HR MIN TEMP:  46; 6HR MAX TEMP:  60;

GORDON         FAIR      43  21  41 CALM      29.83F
6HR MIN TEMP:  42; 6HR MAX TEMP:  56;

KIMBALL        CLOUDY    37  15  40 W10       29.94F WCI  30
SIDNEY         CLOUDY    35  21  56 SW10      29.93F WCI  27
6HR MIN TEMP:  35; 6HR MAX TEMP:  61;

$$

NEZ057>060-069>072-079>082-200100-
SOUTHWEST NEBRASKA

CITY           SKY/WX    TMP DP  RH WIND       PRES   REMARKS
NORTH PLATTE   CLOUDY    48  22  35 SW6       29.92F
6HR MIN TEMP:  41; 6HR MAX TEMP:  60;

IMPERIAL       CLOUDY    43  21  41 S3        29.93F
6HR MIN TEMP:  43; 6HR MAX TEMP:  61;

LEXINGTON      CLOUDY    45  25  44 S6        29.93F
MCCOOK         CLOUDY    50  23  34 S5        29.95F
6HR MIN TEMP:  50; 6HR MAX TEMP:  62;

OGALLALA       CLOUDY    46  19  33 CALM      29.91F
$$

NEZ005>010-023>029-035>040-094-200100-
NORTH CENTRAL NEBRASKA

CITY           SKY/WX    TMP DP  RH WIND       PRES   REMARKS
VALENTINE      CLOUDY    41  22  46 SW8       29.85F
6HR MIN TEMP:  41; 6HR MAX TEMP:  60;

AINSWORTH      CLOUDY    43  23  45 SW8       29.87S
BROKEN BOW     CLOUDY    43  25  49 SW3       29.90F
6HR MIN TEMP:  43; 6HR MAX TEMP:  58;

O`NEILL        CLOUDY    43  26  50 SW3       29.88S
ORD            CLEAR     37  24  59 SW8       29.90F WCI  31
6HR MIN TEMP:  37; 6HR MAX TEMP:  58;

THEDFORD       CLEAR     46  20  36 S9        29.89F
$$

NEZ041-046>049-061>064-073>077-083>087-200100-
SOUTH CENTRAL NEBRASKA

CITY           SKY/WX    TMP DP  RH WIND       PRES   REMARKS
GRAND ISLAND   CLOUDY    46  26  45 SW9       29.95F
6HR MIN TEMP:  46; 6HR MAX TEMP:  56;

AURORA         CLOUDY    44  25  47 SW9       29.95F
HASTINGS       CLOUDY    50  21  32 S9        29.96F
6HR MIN TEMP:  50; 6HR MAX TEMP:  57;

HEBRON         CLEAR     47  24  39 S5        29.99S
HOLDREGE       CLOUDY    46  23  40 SW6       29.95F
KEARNEY        CLOUDY    47  24  40 SW6       29.95F
YORK           CLEAR     43  25  49 CALM      29.96F
$$

NEZ011>018-030>034-042>045-200100-
NORTHEAST NEBRASKA

CITY           SKY/WX    TMP DP  RH WIND       PRES   REMARKS
NORFOLK        CLEAR     45  24  43 S10       29.91F
6HR MIN TEMP:  45; 6HR MAX TEMP:  55;

ALBION         CLEAR     44  26  49 SW7       29.92S
BLAIR          CLEAR     46  27  48 S7        29.96S
COLUMBUS       CLEAR     48  26  42 S8        29.95F
FREMONT        CLEAR     47  27  44 S3        29.96F
TEKAMAH        CLOUDY    38  24  57 S8        29.95F WCI  32
6HR MIN TEMP:  38; 6HR MAX TEMP:  55;

WAYNE          CLOUDY    41  23  48 SW6       29.91S
$$

NEZ050>053-065>068-078-088>093-200100-
SOUTHEAST NEBRASKA

CITY           SKY/WX    TMP DP  RH WIND       PRES   REMARKS
LINCOLN        CLEAR     48  24  39 SW9       29.98F
6HR MIN TEMP:  48; 6HR MAX TEMP:  57;

OMAHA EPPLEY   PTCLDY    45  25  45 S8        29.98R
6HR MIN TEMP:  44; 6HR MAX TEMP:  55;

BEATRICE       CLEAR     47  25  42 S9        29.99F
FALLS CITY     CLEAR     46  24  42 S8        30.03F
6HR MIN TEMP:  46; 6HR MAX TEMP:  55;

NEBRASKA CITY  CLEAR     44  27  52 S10       30.00F
PLATTSMOUTH    CLEAR     45  27  48 S10       29.98F
$$

NEZ044-045-051>053-067-200100-
OMAHA AREA

CITY           SKY/WX    TMP DP  RH WIND       PRES   REMARKS
OMAHA EPPLEY   PTCLDY    45  25  45 S8        29.98R
6HR MIN TEMP:  44; 6HR MAX TEMP:  55;

BLAIR          CLEAR     46  27  48 S7        29.96S
FREMONT        CLEAR     47  27  44 S3        29.96F
MILLARD        CLEAR     49  27  41 SE5       29.97F
OFFUTT AFB     CLEAR     45  24  44 S6        29.97F
PLATTSMOUTH    CLEAR     45  27  48 S10       29.98F
WAHOO          FAIR      46  25  43 SW5       29.96F
$$




USA.gov is the U.S. government's official web portal to all federal, state and local government web resources and services.